Retour au catalogue

CZ-6A DEB

ActifPO
NORAD 55532·DEBRIS·🇨🇳 China

Lancé Nov 11, 2022 depuis Taiyuan Satellite Launch Center

Loading…

Prochains Passages (prochaines 24 heures)

TLE

FraisSource: Space-Track

Époque: Sep 13, 2026, 18:26 UTC

1 55532U 22151YE  26256.76852154  .00027293  00000-0  21695-2 0  9998
2 55532  98.6339 344.2459 0035367 318.6263  41.2280 14.99914230198966

Suivez CZ-6A DEB en temps réel avec AllMySat

Download on the App Store